Location: Roanoke
(37.2710°N, 79.9420°W)
Time: 09:53:15
(UTC-04:00)

Tiangong 2 - Visible Passes

Search period start: 18 March 2019 00:00
Search period end: 28 March 2019 00:00
Orbit: 379 x 390 km, 42.8° (Epoch: 18 March)

Date Brightness Start Highest point End Pass type
(mag) Time Alt. Az. Time Alt. Az. Time Alt. Az.
18 Mar 2.6 06:01:41 25° NNW 06:02:39 30° N 06:05:31 10° ENE visible
19 Mar 4.2 05:04:58 16° NE 05:04:58 16° NE 05:05:51 10° ENE visible
19 Mar 1.8 06:37:11 11° WNW 06:40:11 49° NNE 06:43:17 10° E visible
20 Mar 2.3 05:40:31 35° N 05:40:37 35° NNE 05:43:35 10° E visible
21 Mar 1.1 06:16:10 22° WNW 06:18:02 79° NNE 06:21:12 10° ESE visible
22 Mar 3.0 05:19:41 30° ENE 05:19:41 30° ENE 05:21:36 10° E visible
23 Mar 1.1 05:55:33 56° SW 05:55:46 58° SSW 05:58:53 10° SE visible
24 Mar 4.3 04:59:20 11° ESE 04:59:20 11° ESE 04:59:27 10° ESE visible
24 Mar 2.9 06:31:35 14° WSW 06:32:45 17° SW 06:34:52 10° S visible
25 Mar 3.5 05:35:34 15° SSE 05:35:34 15° SSE 05:36:14 10° SSE visible
